星链-34261 (STARLINK-34261)

导读

STARLINK-34261是美国(US)于2025年7月8日发射的星链卫星,属于SpaceX公司星链星座组网计划的组成部分。星链项目旨在构建全球卫星互联网星座,为全球偏远地区、海洋和空中等场景提供低延迟宽带互联网接入服务,该卫星的发射进一步推进了星链星座的部署进程,扩大了星座覆盖范围。

基本信息
目录编号:
64764
目录名称:
STARLINK-34261
国际标识:
2025-147K
轨道中心:
EARTH
卫星名称:
星链-34261
卫星全名:
星链-34261 (STARLINK-34261)
卫星状态:
在轨 (已飞行423 天)
发射日期:
2025-07-08 UTC
国别 :
美国 (US)
星等 :
--
轨道信息
数据来源 国际轨道数据
星历时间: 2026-09-02T08:35:35+0800
2天前
查看轨道信息
半长轴: 6840.847km
偏心率: 0.0001254
轨道倾角: 53.158°
近地点辐角 70.877°
升交点赤经 139.850°
平近点角 289.237°
近地点: 461.852km
远地点: 463.568km
周期: 93.848分钟
每日圈数: 15.34398
详细信息
固有亮度:
5
最大亮度:
2.5
卫星平台:
Starlink V1.0
覆盖范围:
全球
运营商:
太空探索技术公司
运营商所在国:
美国
制造商(研发单位):
太空探索技术公司
制造商所在国:
美国
使用方式:
暂无
卫星简介
Starlink 计划是 SpaceX 推出的全球卫星互联网项目,通过发射低轨道卫星,为全球尤其是偏远地区提供高速、低延迟的互联网服务。自 2019 年起,Starlink 已部署数千颗卫星,旨在缩小全球数字鸿沟,推动互联网普及。该项目还为军事、航空等行业提供通信支持,带来广泛经济效益。
2D轨道图
3D轨道图
轨道高度分析图
轨道倾角分析图
轨道综合分析图
查看轨道综合分析图
交会数据列表
事件ID 空间交会对象 最接近时刻(TCA) 交会距离 交会风险概率(CRP) 交会风险指数(CRI) 操作
CDM_260905-040706-476406-826321
2026-09-05T
04:07:50+0000
0.405 km
远距离
2.231608E-4 高风险 0.82
CDM_260903-194103-168606-476421
2026-09-03T
19:41:44+0000
1.886 km
极远距离
3.342023E-6 低风险 0.45
CDM_260903-222606-429506-476421
2026-09-03T
22:26:36+0000
1.406 km
极远距离
3.313472E-6 低风险 0.45
CDM_260903-195405-085106-476421
2026-09-03T
19:54:48+0000
2.907 km
极远距离
7.217341E-7 极低风险 0.32